Regional Weather Roundup
Issued by NWS

Home | Current Version | Previous Version | Graphics & Text | Print | Product List | Glossary On
Versions: 1 2 3 4 5 6 7 8 9 10 11 12 13 14 15 16 17 18 19 20 21 22 23 24 25 26 27 28 29 30 31 32 33 34 35 36 37 38 39 40 41 42 43 44 45 46 47 48 49 50
000
ASUS45 KBOU 202307
RWRCO

WEATHER ROUNDUP FOR COLORADO
NATIONAL WEATHER SERVICE DENVER/BOULDER CO
500 PM MDT SAT SEP 20 2014

NOTE: "FAIR" INDICATES FEW OR NO CLOUDS BELOW 12000 FEET WITH NO
SIGNIFICANT WEATHER AND/OR OBSTRUCTIONS TO VISIBILITY.

COZ001>005-013-030-031-210000-
...NORTHWEST COLORADO...

CITY           SKY/WX    TMP DP  RH WIND       PRES   REMARKS
CRAIG          SUNNY     80  32  17 S3        30.23F
HAYDEN         SUNNY     79  23  12 CALM      30.25F
MEEKER         NOT AVBL
MOUNT WERNER   NOT AVBL
STEAMBOAT SPGS SUNNY     78  26  14 S5        30.26F
WALDEN         SUNNY     73  25  16 N6        30.37S
$$

COZ006>008-011-210000-
...WEST CENTRAL VALLEYS...

CITY           SKY/WX    TMP DP  RH WIND       PRES   REMARKS
GRAND JUNCTION SUNNY     90  39  16 W10       30.03F
MONTROSE       MOSUNNY   83  42  23 W7        30.14S
EAGLE          MOSUNNY   84  32  15 W6        30.20F
RIFLE          SUNNY     87  35  15 NW5       30.10F
DELTA          MOSUNNY   92  37  14 SW9       30.07S
NUCLA          MOSUNNY   81  36  19 E12       30.17S
$$

COZ017>023-064>068-210000-
...SOUTHWEST COLORADO...

CITY           SKY/WX    TMP DP  RH WIND       PRES   REMARKS
DURANGO        MOSUNNY   82  35  18 W3        30.16F
CORTEZ         SUNNY     85  43  22 SW5       30.11S
PAGOSA SPRINGS PTSUNNY   82  31  16 SE6       30.26R
TELLURIDE      NOT AVBL
WOLF CREEK PAS CLOUDY    59  34  38 NW5       30.61S
$$

COZ009-010-012-014-032>034-037-058>063-210000-
...CENTRAL COLORADO...

CITY           SKY/WX    TMP DP  RH WIND       PRES   REMARKS
ASPEN          MOSUNNY   78  36  21 NW6       30.28S
BUENA VISTA    PTSUNNY   74  31  20 S20G30    30.32S
COPPER MTN     CLOUDY    61  30  31 W8        30.66R
BERTHOUD PASS  FAIR      45  43  93 E25G33    30.71F
COTTONWOOD PAS PTSUNNY   66  28  24 SW12G30   30.47S
GUNNISON       PTSUNNY   75  34  22 S13G28    30.28S
KREMMLING      SUNNY     79  10   7 N7        30.29F
LEADVILLE      CLOUDY    63  34  33 SE10G22   30.46R
SALIDA         PTSUNNY   79  37  21 E14G20    30.35S
SUNLIGHT       MOSUNNY   64  32  29 NW3       30.57S
WILKERSON PASS NOT AVBL
$$

COZ069>075-210000-
...SAN LUIS VALLEY/SANGRE DE CRISTO MOUNTAINS...

CITY           SKY/WX    TMP DP  RH WIND       PRES   REMARKS
ALAMOSA        MOSUNNY   80  38  22 E17G28    30.26S
LA VETA PASS   MOSUNNY   63  41  45 NE20G28   30.52S
SAGUACHE       NOT AVBL
$$

COZ035-036-038>040-210000-
...NORTHERN COLORADO FRONT RANGE...

CITY           SKY/WX    TMP DP  RH WIND       PRES   REMARKS
DENVER INTL AP MOSUNNY   78  44  29 NE10      30.24R
DMNS CITY PARK   N/A     76  43  30 N8        30.24R
AURORA         MOSUNNY   78  47  33 E12       30.26R
FRONT RANGE AP NOT AVBL
ERIE MUNI ARPT SUNNY     80  44  27 N7        30.22R
BOULDER MUN AP SUNNY     77  45  31 N6        30.24R
CENTENNIAL     MOSUNNY   77  46  33 NE10      30.26R
BROOMFIELD     MOSUNNY   79  43  27 CALM      30.26S
FORT COLLINS   SUNNY     81  48  32 SE7       30.20S
LONGMONT       SUNNY     82  46  28 CALM      30.24R
$$

COZ041-046-047-076>085-087-088-210000-
...PIKES PEAK/PALMER DIVIDE AND SOUTHERN FOOTHILLS...

CITY           SKY/WX    TMP DP  RH WIND       PRES   REMARKS
COLO. SPRINGS  PTSUNNY   79  43  27 E13       30.26R
A. F. ACADEMY  MOSUNNY   76  44  32 E9        30.27S
ELLICOTT       NOT AVBL
FALCON         MOSUNNY   77  43  29 NE13      30.32S
FORT CARSON    MOSUNNY   80  45  28 E15       30.23R
LIMON          SUNNY     77  48  35 E13       30.23S
MONUMENT HILL  SUNNY     72  43  35 NE9       30.33S
TRINIDAD       SUNNY     83  43  24 E8        30.20F
$$

COZ042>045-048>051-090-091-210000-
...NORTHEAST COLORADO...

CITY           SKY/WX    TMP DP  RH WIND       PRES   REMARKS
GREELEY ARPT   SUNNY     81  48  32 SE10      30.21R
AKRON          SUNNY     79  48  33 NE8       30.20S
BURLINGTON     SUNNY     83  48  29 NE13      30.17R
WRAY           SUNNY     84  46  26 E7        30.14S
STERLING       SUNNY     84  54  34 NE6       30.16S
HOLYOKE        SUNNY     84  46  26 N3        30.15R
FORT MORGAN    SUNNY     79  47  32 E10       30.21S
$$

COZ086-089-092>099-210000-
...SOUTHEAST COLORADO...

CITY           SKY/WX    TMP DP  RH WIND       PRES   REMARKS
PUEBLO         LGT RAIN  86  46  24 SE14G24   30.13S
LA JUNTA       SUNNY     88  48  25 E15       30.12S
LAMAR          SUNNY     89  52  28 NE18      30.07R
SPRINGFIELD      N/A     85  50  29 NE13      30.10S
$$


USA.gov is the U.S. government's official web portal to all federal, state and local government web resources and services.